Weather History for GMAD - October, 2013

Change the Weather History Date:

Thursday, October 17, 2013

  Actual Average Record
Temperature  
Mean Temperature 69 °F -  
Max Temperature 80 °F - - ()
Min Temperature 58 °F - - ()
Cooling Degree Days 4    
Growing Degree Days 19 (Base 50)    
Moisture  
Dew Point 60 °F    
Average Humidity 80    
Maximum Humidity 94    
Minimum Humidity 44    
Precipitation  
Precipitation 0.00 in - - ()
Sea Level Pressure  
Sea Level Pressure 30.01 in    
Wind  
Wind Speed 3 mph ()    
Max Wind Speed 14 mph    
Max Gust Speed -    
Visibility 4.6 miles    
Events Fog    
T = Trace of Precipitation, MM = Missing Value Source: Averaged Metar Reports

Daily Weather History Graph

Daily Weather History Graph

Search for Another Location

Airport or City:

Trip Planner

Search our weather history database for the weather conditions in past years. The results will help you decide how hot, cold, wet, or windy it might be!

Date:

Astronomy

Oct. 17, 2013 Rise Set
Actual Time 7:41 AM WEST 7:04 PM WEST
Civil Twilight 7:16 AM WEST 7:28 PM WEST
Nautical Twilight 6:48 AM WEST 7:56 PM WEST
Astronomical Twilight 6:21 AM WEST 8:24 PM WEST
Moon 6:07 PM WEST (10/17) 6:04 AM WEST (10/17)
Length of Visible Light 12h 11m
Length of Day
11h 23m
Waxing Gibbous, 97% of the Moon is Illuminated
Oct 17
Waxing Gibbous
Oct 19
Full
Oct 27
Last Quarter
Nov 3
New
Nov 10
First Quarter

Hourly Weather History & Observations

Time (WEST) Temp. Dew Point Humidity Pressure Visibility Wind Dir Wind Speed Gust Speed Precip Events Conditions
12:00 AM 62.6 °F 59.0 °F 88% 30.04 in 6.2 mi ENE 1.2 mph - N/A   Partly Cloudy
1:00 AM 64 °F 60 °F 83% 30.04 in 5 mi ENE 8.1 mph - -   Scattered Clouds
1:00 AM 64.4 °F 60.8 °F 88% 30.04 in 6.2 mi ENE 8.1 mph - N/A   Partly Cloudy
2:00 AM 64.4 °F 59.0 °F 83% 30.01 in 6.2 mi ENE 8.1 mph - N/A   Partly Cloudy
3:00 AM 64.4 °F 59.0 °F 83% 29.98 in 6.2 mi East 2.3 mph - N/A   Unknown
4:00 AM 63 °F 58 °F 79% 29.99 in 6 mi Calm Calm - -   Scattered Clouds
4:00 AM 62.6 °F 59.0 °F 88% 29.98 in 6.2 mi Calm Calm - N/A   Partly Cloudy
5:00 AM 62.6 °F 57.2 °F 82% 29.98 in 6.2 mi Calm Calm - N/A   Unknown
6:00 AM 60.8 °F 57.2 °F 88% 29.98 in 6.2 mi Calm Calm - N/A   Partly Cloudy
7:00 AM 59 °F 56 °F 85% 29.99 in 3 mi Calm Calm - -  
7:00 AM 59.0 °F 55.4 °F 88% 29.98 in 5.6 mi Calm Calm - N/A   Unknown
8:00 AM 59.0 °F 55.4 °F 88% 29.98 in 0.3 mi Calm Calm - N/A   Unknown
8:06 AM 59.0 °F 55.4 °F 88% 29.98 in 0.3 mi Calm Calm - N/A   Overcast
9:00 AM 62.6 °F 60.8 °F 94% 30.01 in 0.1 mi Calm Calm - N/A Fog Fog
9:05 AM 62.6 °F 60.8 °F 94% 30.01 in 0.7 mi Calm Calm - N/A   Overcast
9:17 AM 62.6 °F 60.8 °F 94% 30.01 in 1.9 mi Calm Calm - N/A   Overcast
9:43 AM 64.4 °F 62.6 °F 94% 30.04 in 2.5 mi Calm Calm - N/A   Overcast
10:00 AM 65 °F 63 °F 90% 30.04 in 5 mi Calm Calm - -   Overcast
10:00 AM 64.4 °F 62.6 °F 94% 30.04 in 5.0 mi Calm Calm - N/A   Overcast
10:15 AM 66.2 °F 62.6 °F 88% 30.04 in 3.7 mi Calm Calm - N/A   Scattered Clouds
11:00 AM 66.2 °F 62.6 °F 88% 30.04 in 3.7 mi Calm Calm - N/A   Scattered Clouds
12:00 PM 73.4 °F 62.6 °F 69% 30.04 in 6.2 mi Calm Calm - N/A   Scattered Clouds
1:00 PM 78 °F 60 °F 44% 30.01 in 6 mi WSW 3.5 mph - -   Scattered Clouds
1:00 PM 78.8 °F 60.8 °F 54% 30.01 in 6.2 mi WSW 3.5 mph - N/A   Partly Cloudy
2:00 PM 78.8 °F 60.8 °F 54% 29.98 in 6.2 mi West 12.7 mph - N/A   Scattered Clouds
3:00 PM 77.0 °F 60.8 °F 57% 29.98 in 6.2 mi WSW 11.5 mph - N/A   Scattered Clouds
4:00 PM 75 °F 62 °F 56% 29.98 in 6 mi WSW 13.8 mph - -   Scattered Clouds
4:00 PM 75.2 °F 62.6 °F 65% 29.98 in 6.2 mi WSW 13.8 mph - N/A   Partly Cloudy
5:00 PM 73.4 °F 62.6 °F 69% 29.98 in 5.0 mi WSW 11.5 mph - N/A   Partly Cloudy
6:00 PM 71.6 °F 62.6 °F 73% 29.98 in 6.2 mi West 9.2 mph - N/A   Partly Cloudy
7:00 PM 69 °F 61 °F 70% 29.99 in 5 mi West 8.1 mph - -   Partly Cloudy
7:00 PM 69.8 °F 60.8 °F 73% 29.98 in 5.0 mi West 8.1 mph - N/A   Scattered Clouds
8:00 PM 66.2 °F 60.8 °F 83% 30.01 in 3.7 mi West 4.6 mph - N/A   Scattered Clouds
9:00 PM 64.4 °F 59.0 °F 83% 30.01 in 3.7 mi Calm Calm - N/A   Scattered Clouds
10:00 PM 66 °F 61 °F 80% 30.03 in 4 mi Calm Calm - -   Partly Cloudy
10:00 PM 66.2 °F 60.8 °F 83% 30.04 in 3.7 mi Calm Calm - N/A   Scattered Clouds
11:00 PM 68.0 °F 62.6 °F 83% 30.04 in 3.7 mi Calm Calm - N/A   Mostly Cloudy